GFSSW_925_temp_159.txt.gz
Temp
19 19 19 19 20 20 21 22 23 24 25 25 25 25 25 26 27 26 25 33 33 32 32 33 32 30 29 27 28 28 27 28 29 28 27 27 26 26 26 25 24 25 24 21 19
18 19 19 19 19 19 20 21 22 24 25 25 25 25 25 26 27 25 34 34 32 32 32 30 31 29 27 28 27 27 26 29 31 29 28 27 26 25 24 23 22 22 21 20 19
18 18 19 19 19 19 20 21 21 23 25 24 25 25 25 25 25 30 35 35 32 32 32 32 32 30 29 27 27 27 28 30 30 30 28 27 27 26 23 23 23 22 21 21 20
17 17 18 19 19 19 20 20 21 22 24 24 25 25 25 25 30 34 34 34 33 32 32 32 31 32 31 31 29 29 31 32 30 29 29 27 26 25 25 24 24 23 22 21 21
16 17 17 18 18 19 20 21 22 22 23 24 24 24 24 25 26 34 34 34 33 32 32 32 32 32 32 31 31 33 32 32 31 30 28 28 26 26 25 24 24 23 22 21 21
14 16 17 18 18 19 21 21 22 22 23 23 24 24 23 25 32 33 33 33 33 32 32 31 32 32 32 32 33 33 32 31 30 30 29 27 26 26 25 24 23 23 22 21 20
13 15 17 17 18 19 21 22 23 22 22 23 23 22 21 26 32 31 32 32 33 33 32 33 33 32 33 33 32 32 30 30 30 29 28 28 27 25 25 25 24 23 22 22 22
12 13 15 17 18 19 21 22 23 22 22 23 22 20 22 30 31 31 31 32 33 33 33 34 34 31 33 33 30 30 29 27 30 29 29 28 26 26 25 25 24 24 24 24 23
11 12 14 16 18 19 21 23 23 21 21 22 21 20 23 29 30 33 31 31 33 33 33 34 33 31 31 30 28 28 28 30 29 30 29 29 26 27 26 25 24 25 25 24 23
11 12 13 15 17 19 22 23 21 21 20 20 20 21 25 30 32 33 33 32 32 33 33 33 27 28 26 27 29 30 31 30 29 31 30 28 26 27 26 26 25 25 25 25 24
10 11 12 15 18 19 22 23 19 20 20 23 24 24 27 31 32 32 33 31 32 31 30 30 29 28 30 29 30 32 31 31 31 32 29 27 27 28 26 26 26 26 25 25 24
10 10 12 15 17 20 20 19 20 21 18 22 24 24 28 29 29 31 33 30 30 29 30 29 28 29 31 30 31 30 31 30 31 31 30 27 27 28 28 27 27 26 26 25 25
9 10 11 15 18 17 16 20 20 20 19 24 24 25 26 28 28 28 30 29 30 29 28 27 30 31 31 31 32 30 30 30 30 30 29 29 27 27 28 28 28 27 27 26 26
9 9 10 13 16 14 16 20 20 18 21 24 26 27 27 28 29 31 31 31 30 28 28 28 30 31 32 31 30 30 31 32 30 31 28 29 26 26 27 28 28 28 27 27 27
9 9 9 10 10 11 20 20 21 21 23 28 28 30 26 29 30 30 32 31 29 29 28 28 31 31 31 31 31 31 33 32 31 28 27 29 27 25 27 27 28 28 28 28 27
9 9 9 10 10 17 17 19 20 22 22 27 29 28 28 30 32 30 31 32 30 31 30 28 31 32 32 34 32 34 34 28 25 25 28 28 28 27 27 29 29 30 29 29 28
9 9 10 9 12 17 17 17 21 20 26 27 28 27 28 28 30 30 30 29 27 27 27 29 30 31 34 33 33 31 28 27 29 27 28 27 29 30 29 31 31 30 30 30 29
9 9 13 13 16 15 16 18 21 23 24 27 29 27 29 28 29 30 29 29 28 28 24 27 29 31 33 32 32 31 29 26 30 27 29 26 30 31 29 31 32 32 31 30 29
9 10 12 16 17 13 14 17 23 22 26 27 28 28 28 30 29 30 27 30 30 26 28 25 28 31 33 33 32 32 30 29 25 25 27 27 29 31 29 29 30 31 31 30 30
8 8 10 15 16 14 14 19 21 22 27 27 27 27 26 28 29 28 26 30 30 28 29 28 29 31 33 34 32 32 29 30 25 30 30 28 28 28 31 30 29 29 28 29 29
8 6 14 13 14 12 15 15 20 22 25 26 26 27 27 29 28 27 27 31 31 28 29 27 27 29 32 31 31 30 30 25 25 24 27 27 27 26 30 28 28 28 28 27 27
5 8 14 13 12 11 12 18 21 24 24 25 26 26 27 28 28 29 28 30 31 27 27 26 25 27 29 30 32 32 30 27 26 28 24 25 28 29 28 28 27 26 25 24 26
4 4 14 14 12 12 15 20 22 22 23 24 25 26 26 26 26 27 29 31 30 30 27 27 24 27 27 29 30 32 29 25 23 23 24 27 28 28 27 27 26 25 23 22 23
4 6 7 9 10 15 17 18 19 22 22 23 24 24 24 25 25 26 27 29 30 31 28 29 23 29 30 28 29 32 31 28 27 25 25 26 30 29 26 25 24 23 21 20 20
4 6 8 7 10 9 11 17 19 20 22 21 21 23 24 24 26 24 26 28 29 30 26 27 27 25 27 30 29 32 32 29 29 28 29 29 27 27 26 25 24 22 21 21 20
5 6 7 7 8 10 13 17 18 20 20 21 21 23 21 22 24 25 26 27 27 28 27 24 28 26 27 28 29 31 31 29 30 28 30 28 28 27 24 23 23 23 22 21 20
7 8 8 8 8 10 11 12 17 16 20 21 22 22 22 21 23 24 23 24 26 27 26 26 24 24 28 28 28 29 30 31 31 30 29 28 28 25 25 25 24 22 22 21 21

GFSSW_925_temp_165.txt.gz
Temp
17 18 18 19 19 20 21 21 22 23 24 25 25 25 25 25 26 26 28 32 32 31 31 30 29 28 28 30 30 30 33 32 32 31 28 28 27 26 26 26 24 26 24 21 18
16 17 18 18 19 19 20 21 22 23 24 24 24 24 25 25 25 25 33 33 32 32 32 31 31 30 32 31 31 32 33 33 32 31 29 28 27 26 26 25 23 22 20 20 19
15 16 17 18 18 19 20 21 22 23 23 24 24 24 25 25 27 32 32 32 32 32 32 32 31 32 33 31 31 31 33 32 30 30 30 28 27 26 26 25 24 22 21 20 20
13 14 16 17 18 18 19 20 21 23 23 23 24 24 25 25 32 31 32 32 31 31 32 31 32 33 33 33 31 33 32 32 30 29 29 28 27 26 26 26 25 24 22 21 21
11 12 14 16 18 18 19 20 22 23 23 23 24 24 24 27 30 31 32 32 30 30 32 33 33 33 34 33 32 33 31 30 30 29 29 28 27 26 25 25 24 23 23 23 23
10 12 13 15 17 18 19 21 22 23 23 23 24 24 24 27 30 30 30 32 30 30 31 32 34 33 33 32 32 31 31 30 31 30 29 29 28 28 24 24 23 23 23 23 23
10 11 12 14 16 18 19 21 22 23 23 23 23 22 23 29 29 29 29 30 30 30 33 32 33 34 34 32 32 32 31 31 30 30 29 30 29 27 25 25 23 23 23 23 23
10 10 11 14 16 18 20 21 23 23 22 23 22 21 26 28 28 29 29 30 30 30 31 32 32 33 34 33 33 32 33 32 30 30 29 30 29 26 25 25 24 23 22 23 22
10 10 11 13 16 18 21 21 22 21 21 21 21 22 28 28 27 30 30 31 30 30 31 31 32 32 34 34 33 32 33 32 30 31 30 29 30 28 26 26 26 25 25 24 24
9 10 10 13 15 18 21 20 19 20 20 19 19 23 27 30 29 29 30 31 32 32 32 32 32 34 33 35 34 33 32 32 32 31 31 30 31 29 27 27 26 26 26 26 25
9 10 10 12 15 18 20 20 22 22 20 26 27 26 27 28 28 29 29 31 32 33 33 32 34 34 35 35 34 33 33 33 33 32 32 32 32 30 28 28 27 27 27 27 27
9 9 10 12 15 17 17 19 16 16 21 23 23 24 25 26 28 30 30 32 32 33 31 32 34 33 34 33 34 34 34 34 33 33 32 31 32 31 29 29 29 28 28 28 28
9 9 10 12 15 15 13 15 15 15 20 25 24 26 27 27 29 29 31 31 32 31 32 34 34 32 32 32 33 33 34 32 34 31 31 31 31 31 30 29 29 29 29 29 29
9 9 9 11 14 12 15 15 16 16 24 27 26 27 27 29 30 30 31 33 30 32 31 33 32 32 33 33 34 35 33 34 32 33 33 32 34 30 32 29 29 29 30 29 29
9 9 9 9 8 11 15 16 16 16 25 28 26 27 27 31 31 29 30 32 31 30 32 33 31 32 33 34 34 35 33 33 33 33 32 31 34 34 29 31 31 31 30 31 30
9 9 9 9 8 14 15 16 17 24 24 28 28 27 27 30 30 29 31 32 31 31 30 32 31 33 35 33 34 32 32 32 31 33 33 33 34 36 32 32 34 33 32 31 31
9 9 9 7 12 14 14 17 23 24 26 28 28 27 29 30 30 31 31 30 31 30 30 30 32 32 33 34 33 33 35 33 32 33 34 29 32 36 37 35 34 34 34 32 32
9 9 10 10 12 12 13 20 22 25 26 28 28 27 28 29 31 30 31 30 30 30 30 31 31 32 33 34 34 34 36 35 33 33 34 29 33 36 35 34 34 34 34 34 32
8 9 8 12 10 9 16 20 24 24 28 28 28 28 28 29 31 30 30 31 31 31 33 31 32 31 33 34 35 31 34 35 32 29 34 33 34 35 35 35 33 33 33 33 33
7 6 8 10 9 11 17 20 23 24 25 28 28 28 29 30 30 31 29 31 31 30 31 31 32 32 33 34 32 35 33 34 33 32 33 33 33 37 37 37 33 32 32 32 32
6 10 10 9 9 14 18 20 22 24 24 26 28 28 28 29 30 31 30 31 32 30 32 30 31 31 32 33 34 32 33 31 34 33 35 34 35 35 34 35 34 34 33 32 32
6 10 9 8 14 13 17 18 21 24 24 25 26 27 28 28 30 30 31 33 32 32 31 31 32 32 33 31 32 35 36 36 35 31 31 35 36 35 33 32 32 34 32 32 32
8 8 9 10 14 15 16 18 21 23 24 25 26 26 26 28 28 30 30 31 31 31 32 30 31 32 32 32 31 34 32 33 32 32 31 35 36 33 32 32 32 32 33 31 30
7 9 11 12 10 13 14 17 19 22 22 24 24 25 26 27 26 28 30 30 30 32 27 31 31 32 34 34 34 32 32 32 36 34 34 35 36 34 34 34 33 31 29 28 28
7 9 8 10 12 11 11 14 18 20 22 23 24 24 26 27 27 28 29 30 29 25 30 32 31 30 32 33 33 34 34 32 34 36 35 36 34 36 34 34 34 30 26 26 26
8 9 9 10 9 11 11 14 16 18 20 22 22 24 24 26 28 27 28 29 28 28 28 27 30 29 32 32 33 34 34 33 34 31 33 33 33 35 35 31 30 29 27 27 26
6 7 8 9 10 11 12 12 14 14 18 19 22 23 23 24 25 26 26 26 27 27 27 28 28 29 31 32 31 30 32 33 33 33 34 33 35 31 30 30 31 30 27 27 26

GFSSW_925_temp_168.txt.gz
Temp
16 17 18 19 19 19 20 21 23 23 23 24 24 24 25 25 27 26 33 33 32 32 30 30 30 33 33 36 35 36 37 36 35 35 33 32 32 31 31 29 28 28 27 21 20
15 16 17 18 19 19 20 21 22 23 23 24 24 24 25 26 24 31 33 32 32 32 32 34 36 35 38 37 37 38 38 35 36 35 33 32 32 30 30 29 26 26 23 20 20
13 14 16 17 18 19 20 21 22 23 24 24 24 25 25 26 31 36 32 32 32 32 33 35 35 37 38 38 37 37 37 36 35 35 34 32 31 31 31 29 27 25 24 21 21
12 13 14 16 18 18 19 20 22 23 24 24 24 25 25 24 34 33 32 32 31 31 33 35 37 38 38 37 37 37 36 36 35 34 34 33 32 31 31 31 29 25 26 22 22
11 12 13 15 16 18 19 20 22 22 23 24 24 25 25 31 34 31 31 32 31 31 34 37 37 38 38 37 37 37 36 35 35 34 33 33 32 30 29 29 27 26 26 24 23
11 11 13 14 16 17 19 21 22 23 23 24 24 24 27 31 31 30 30 30 32 33 35 36 38 38 37 37 37 37 36 35 35 34 34 33 31 32 29 28 26 25 24 24 24
10 11 12 15 16 17 19 21 22 23 24 24 24 23 28 32 31 30 30 32 32 34 37 36 37 38 38 36 37 36 36 36 35 35 33 35 33 31 29 28 25 25 25 25 25
10 10 11 14 16 17 19 20 22 23 23 22 23 22 30 30 30 30 31 32 32 33 34 35 36 38 38 37 36 37 38 37 35 35 34 34 33 31 30 30 28 27 26 26 26
10 10 11 13 15 17 20 20 21 21 21 22 22 26 32 28 30 32 32 34 34 34 34 34 36 38 37 37 37 37 38 37 35 35 35 35 34 32 31 31 30 29 28 28 28
10 10 11 12 15 17 20 20 19 20 20 19 22 27 31 33 33 32 32 34 35 35 35 36 38 38 38 39 38 37 37 37 37 36 35 35 35 33 32 32 32 32 31 30 30
10 10 11 12 14 17 19 21 25 25 24 31 32 33 32 32 30 32 32 34 36 36 36 36 37 37 38 39 39 39 38 37 38 37 36 37 37 35 33 33 33 32 32 31 31
9 10 10 12 15 16 17 25 20 18 26 30 30 30 31 30 32 34 33 35 35 35 37 35 36 39 39 38 38 38 38 38 37 37 36 37 37 37 35 34 35 34 33 32 32
9 9 10 12 15 16 17 20 17 19 26 31 31 31 31 31 33 34 34 36 35 36 36 36 38 39 37 37 37 38 38 38 37 37 37 36 36 37 36 36 36 35 35 34 33
9 9 9 11 16 15 20 17 18 18 28 32 30 31 32 33 32 35 34 36 36 36 36 37 37 37 37 37 38 38 38 38 37 37 38 37 37 36 37 36 36 36 35 35 34
9 9 9 9 12 17 18 17 18 20 29 33 31 31 34 33 35 34 34 36 35 36 37 36 36 36 36 38 38 38 38 38 37 37 37 36 37 36 38 36 37 37 37 36 35
9 9 9 12 12 14 15 17 19 26 28 31 31 30 31 34 34 35 34 36 37 36 35 38 37 38 38 39 38 38 37 37 38 38 36 38 38 38 38 38 38 38 38 38 37
9 9 8 9 16 15 15 20 25 27 31 32 31 32 32 33 34 33 33 33 33 33 34 35 35 37 37 37 37 38 38 36 36 36 37 37 37 40 41 40 40 39 39 39 38
8 9 10 11 13 13 16 22 25 30 31 32 33 33 32 34 34 34 34 33 35 36 36 35 34 36 37 37 37 37 38 37 34 37 38 36 37 39 41 40 40 40 41 40 39
8 12 12 13 12 13 19 22 26 30 32 32 32 32 32 34 35 34 34 35 35 36 36 36 36 37 38 38 39 37 37 40 39 38 39 39 39 40 41 41 40 39 40 40 40
9 12 13 13 12 14 19 22 28 31 30 33 32 33 32 33 33 34 34 35 36 36 38 37 36 37 37 38 38 39 39 37 38 36 36 38 38 39 40 41 39 38 39 39 39
10 14 13 12 12 17 20 23 26 29 28 30 32 32 34 33 33 34 35 36 37 36 36 37 36 36 37 36 37 36 38 38 40 39 38 37 38 41 40 40 39 39 38 38 38
12 14 13 12 16 20 21 23 23 27 28 28 29 32 33 34 34 34 35 35 37 37 34 37 37 36 36 38 39 39 38 39 38 36 38 38 39 41 41 40 39 40 38 39 38
13 14 14 13 17 20 21 22 23 25 27 28 29 31 32 32 32 34 35 36 36 36 35 36 35 35 36 36 36 37 39 40 40 40 38 37 39 41 41 39 39 39 39 37 37
12 14 16 16 17 17 21 21 22 24 26 28 29 29 30 31 32 33 34 36 35 36 31 35 36 36 36 36 37 36 38 39 39 38 38 38 39 40 40 40 39 38 38 37 35
13 14 12 13 16 16 17 20 22 23 25 26 27 28 30 30 31 32 34 34 34 31 33 35 34 35 37 38 39 38 38 38 38 39 38 39 39 40 40 40 41 39 36 35 34
12 13 14 14 14 15 14 18 20 23 25 25 25 29 29 29 31 32 34 33 32 33 34 35 33 35 35 36 37 37 38 38 38 39 39 39 39 41 41 41 39 37 35 34 34
11 11 12 13 15 16 18 18 19 18 20 22 25 27 27 29 29 29 31 31 31 32 32 33 34 33 33 35 36 35 37 37 38 39 39 38 39 40 40 39 39 38 36 35 34

GFSSW_925_temp_171.txt.gz
Temp
15 16 17 18 19 19 20 20 21 22 23 24 24 25 26 27 28 27 35 34 34 32 31 34 34 35 37 39 40 40 39 37 37 37 35 36 35 34 34 30 29 30 28 24 23
14 15 16 17 18 19 19 20 21 22 24 24 24 25 25 26 27 34 35 34 33 32 34 36 39 39 40 41 41 39 39 37 38 37 36 36 35 34 34 31 27 27 25 25 24
13 15 16 17 18 19 19 20 21 22 23 24 25 25 26 26 32 38 33 33 33 32 34 37 38 40 40 41 41 41 39 39 38 38 37 36 35 35 34 32 29 26 24 24 24
11 13 15 16 17 18 19 21 22 23 23 24 25 25 26 25 35 35 33 33 32 31 34 37 39 40 41 40 41 39 39 39 38 38 37 36 36 34 35 33 32 28 26 25 24
11 11 13 15 17 18 19 20 22 23 23 24 25 25 25 33 36 33 33 33 31 32 36 38 39 40 40 40 41 39 39 39 38 37 37 37 35 33 32 31 31 28 27 26 26
11 11 12 14 16 17 19 20 22 23 24 24 25 24 26 33 36 34 34 34 35 35 37 38 40 40 40 40 40 40 39 38 38 37 37 35 34 34 32 31 29 27 27 26 27
11 11 12 13 15 17 19 20 21 23 24 24 24 23 30 34 34 35 34 35 36 37 38 39 39 40 41 40 41 40 38 38 38 38 37 37 36 33 32 31 28 27 26 26 26
11 11 11 13 15 16 19 21 21 23 24 24 24 23 31 34 34 34 35 36 36 36 38 38 39 40 40 41 41 40 40 38 38 39 37 38 34 34 33 31 30 29 28 27 27
10 11 11 12 15 17 19 21 21 21 22 22 23 27 32 32 33 34 35 37 37 37 37 37 39 40 40 39 39 38 32 36 38 39 39 38 36 35 35 34 32 31 30 30 30
10 10 11 12 14 17 20 21 21 20 21 22 26 30 33 34 35 35 36 36 38 38 38 38 39 39 40 40 38 33 36 40 38 39 39 39 37 36 36 36 34 33 32 32 31
10 10 11 13 15 17 19 24 26 26 27 32 34 33 36 36 35 35 36 36 38 38 37 38 38 38 40 40 39 41 39 40 40 40 39 39 38 37 36 37 36 35 34 33 33
10 10 11 12 15 18 18 27 26 23 27 32 33 35 35 35 35 36 36 36 37 36 38 38 38 40 42 41 40 40 40 40 40 40 39 39 39 39 37 37 37 36 35 35 35
9 10 10 12 16 17 22 24 23 24 27 32 34 34 35 35 35 36 37 37 37 37 38 38 39 41 41 40 39 40 40 40 39 40 40 40 39 39 39 39 39 38 37 36 36
9 9 10 12 17 19 24 22 23 24 28 33 34 35 35 35 34 38 37 38 38 37 39 39 41 40 40 39 40 40 41 40 40 39 39 40 36 39 39 39 39 39 38 37 36
9 9 10 12 13 20 22 21 22 25 28 37 36 36 36 35 37 36 37 38 37 38 39 38 39 40 39 39 41 40 42 40 40 39 40 40 39 40 40 39 39 39 39 39 37
9 9 9 14 15 18 19 21 23 26 29 34 35 34 35 35 36 38 37 38 39 38 39 40 41 41 40 41 41 41 40 40 40 40 39 40 40 40 40 40 40 40 40 39 39
9 9 9 10 16 18 18 22 25 27 34 35 34 34 35 34 36 37 36 35 36 35 36 38 40 41 40 40 41 40 39 37 37 38 39 41 40 40 42 42 42 41 41 41 40
9 9 11 13 15 17 19 22 25 31 33 37 36 35 34 36 36 37 35 35 37 38 38 37 36 39 40 40 40 39 39 38 36 38 39 40 39 41 43 43 43 43 42 42 41
9 12 15 17 17 17 19 22 26 31 34 35 36 35 34 36 36 36 36 36 37 38 37 37 37 40 40 40 40 39 38 41 40 41 40 40 41 42 43 42 42 43 43 42 42
9 13 16 17 17 17 19 21 27 32 35 35 34 36 35 36 36 36 35 37 37 39 40 39 37 40 40 40 40 40 41 39 40 38 38 40 40 40 41 42 43 42 42 42 42
10 16 18 17 16 18 19 22 25 32 33 33 35 35 36 36 37 37 37 38 39 38 39 40 39 39 40 38 39 39 40 40 41 40 39 39 40 43 42 42 42 42 42 42 42
13 16 17 16 17 19 20 23 24 28 32 32 32 35 36 37 37 37 37 38 39 39 38 39 39 38 39 40 41 41 40 40 39 38 40 41 41 44 43 43 42 42 42 42 42
14 17 18 17 17 20 22 23 25 28 29 31 31 33 36 36 35 37 38 39 40 39 38 39 38 37 38 40 40 40 40 41 41 41 39 39 40 43 43 42 42 42 41 41 41
12 16 19 19 19 20 22 23 24 27 29 30 31 33 34 35 36 36 37 39 40 39 34 37 38 37 38 38 39 38 40 40 41 40 40 40 41 42 42 42 42 42 41 41 40
13 15 13 16 19 20 21 23 24 25 27 28 30 32 33 33 34 35 37 38 39 35 37 38 36 38 39 41 40 39 39 40 40 40 40 41 41 42 42 42 42 42 41 40 38
11 13 15 17 17 17 17 21 23 25 26 27 28 30 32 33 34 34 36 37 37 37 37 38 35 36 37 40 41 39 40 40 40 41 41 41 41 43 43 43 42 41 40 39 38
13 12 13 16 18 18 20 21 22 24 27 28 29 29 31 33 34 34 35 36 38 36 36 36 36 35 35 38 39 38 40 40 40 41 41 40 41 43 42 41 42 42 41 39 38

GFSSW_925_temp_174.txt.gz
Temp
12 14 16 17 18 18 19 20 22 23 23 23 25 25 25 26 29 27 33 35 34 34 32 34 34 36 38 39 41 41 38 37 38 36 35 37 35 34 34 31 31 30 26 24 24
13 13 14 16 17 19 19 20 22 23 23 23 25 25 25 25 25 32 35 35 35 34 33 37 39 40 40 41 35 37 39 38 39 38 37 37 36 34 31 30 28 27 25 25 24
12 13 15 15 16 17 19 20 21 23 24 24 25 25 25 26 30 38 34 34 35 34 33 36 38 40 40 42 31 39 38 39 38 38 38 36 36 37 33 30 28 26 25 25 25
12 13 14 16 16 17 18 20 21 22 23 24 24 25 26 26 34 35 35 34 34 33 34 36 39 39 40 40 41 39 40 39 38 38 37 36 37 35 34 31 30 27 27 26 26
11 12 14 15 17 18 19 20 21 22 23 24 24 25 25 31 34 35 35 34 34 33 35 38 39 40 40 41 40 39 39 39 39 38 38 37 35 33 32 31 29 27 27 27 26
11 11 12 14 16 18 19 20 21 22 23 24 24 25 25 31 36 36 35 36 35 36 37 38 39 41 41 38 37 39 39 39 38 38 37 35 35 33 32 31 28 27 27 27 27
11 11 12 13 16 17 19 20 21 22 23 24 25 22 29 32 36 37 36 37 37 37 39 39 40 40 41 41 38 37 39 38 38 38 37 38 35 32 31 31 28 28 28 27 28
11 11 11 12 15 17 19 21 21 22 23 24 24 22 29 33 34 35 36 37 37 38 38 39 40 40 40 35 36 31 31 33 39 39 38 38 33 33 32 31 30 29 28 28 28
10 11 11 12 15 17 19 21 22 23 22 22 22 25 31 34 34 35 36 37 38 38 38 39 39 39 39 36 30 25 25 29 35 40 39 39 35 34 34 33 31 30 29 28 28
10 11 11 13 14 17 19 23 23 22 22 22 25 29 32 35 36 36 36 37 38 39 39 38 38 38 39 39 31 28 29 30 32 39 40 39 36 35 35 35 33 32 31 31 30
10 10 11 13 16 17 18 20 26 25 25 30 33 32 35 35 37 37 37 37 38 38 37 38 37 37 39 38 32 34 36 35 38 41 39 34 36 36 36 37 35 34 32 32 32
10 10 11 12 16 18 18 25 28 27 27 31 31 33 34 37 36 37 38 37 37 36 38 38 37 39 41 41 36 35 35 39 40 41 40 39 37 37 37 37 37 36 34 33 33
9 10 11 13 17 19 22 25 25 26 27 30 32 33 34 36 36 37 38 38 37 36 37 37 39 40 41 40 39 40 41 40 39 40 41 40 38 37 38 38 38 38 36 36 35
9 10 10 12 18 18 22 24 25 26 26 30 33 34 35 36 35 37 38 38 37 37 38 38 40 40 40 40 40 40 41 41 40 40 38 41 37 38 38 38 38 38 37 37 36
9 9 10 12 12 18 21 22 24 26 26 36 36 37 36 35 36 36 39 38 37 37 38 38 39 40 40 41 41 40 42 41 41 40 40 40 38 39 39 38 38 39 38 37 37
9 9 9 13 15 18 20 22 24 25 26 34 38 36 35 35 35 38 37 38 38 38 39 39 41 41 41 41 41 42 41 41 40 40 38 40 39 38 39 39 39 39 39 39 38
9 10 9 10 14 17 18 22 24 25 32 34 35 36 35 35 35 36 36 36 36 35 36 38 39 41 42 41 41 41 40 37 37 37 38 41 39 39 41 41 41 40 40 40 39
10 10 10 12 14 17 19 21 22 29 30 36 37 36 35 36 35 36 36 35 36 37 37 36 36 40 41 40 40 40 40 38 35 37 39 41 39 40 43 43 42 42 41 40 40
9 12 15 17 17 17 19 20 23 29 32 34 38 35 35 36 36 36 36 36 37 38 36 37 37 40 41 41 41 40 39 41 39 41 40 40 41 42 43 42 42 42 42 41 40
9 12 15 17 18 20 19 19 24 29 32 34 34 37 35 35 36 36 36 37 37 38 39 39 37 40 41 41 41 40 41 38 39 36 36 40 40 40 41 42 42 42 42 41 40
10 16 19 20 19 20 19 20 22 26 30 31 33 35 37 36 37 36 36 38 38 38 39 39 39 39 40 39 39 39 40 40 40 40 38 37 38 42 41 42 42 42 43 42 41
14 15 19 18 19 19 19 20 21 25 28 29 31 32 36 37 37 37 37 38 39 39 38 39 39 38 39 41 41 40 39 40 39 37 40 39 40 44 43 43 43 43 43 43 42
14 17 18 18 16 18 20 21 22 23 25 27 30 32 35 35 36 37 38 40 40 39 39 39 38 37 38 40 40 39 40 40 40 40 38 38 39 43 43 43 43 43 43 42 42
13 13 14 18 19 19 20 21 22 24 25 27 29 31 33 33 35 36 38 39 40 40 35 37 38 37 38 39 40 38 39 40 40 39 39 40 40 42 42 42 42 42 41 41 40
13 11 10 11 12 16 20 21 23 23 25 27 27 30 32 32 34 36 38 39 40 38 37 39 36 38 39 41 41 40 39 40 40 40 39 41 41 40 41 42 42 42 40 40 39
9 10 13 14 14 15 19 19 20 25 26 26 27 30 31 32 34 35 37 38 38 40 39 40 36 37 38 39 40 40 40 40 40 40 40 41 41 43 41 42 42 41 40 39 39
11 12 13 14 15 17 19 20 22 24 27 28 29 29 30 32 31 32 35 38 39 39 38 37 37 36 36 38 39 38 40 40 40 41 41 40 41 43 42 42 41 40 40 39 38

GFSSW_925_temp_180.txt.gz
Temp
14 15 16 17 19 19 20 21 21 22 23 23 25 25 26 27 29 29 27 34 34 34 32 32 30 31 30 29 32 33 28 29 30 30 29 29 28 29 27 25 26 25 23 22 20
13 15 16 17 18 19 20 20 21 22 23 23 24 25 26 27 27 25 36 35 33 33 33 33 32 32 30 30 31 29 27 31 32 31 30 29 28 27 25 24 23 22 22 21 20
12 13 14 16 17 19 20 20 21 22 23 23 24 25 26 27 25 31 35 35 33 33 33 32 33 32 32 32 30 29 30 33 32 32 31 29 29 28 25 23 23 21 21 21 21
11 12 12 14 16 17 19 20 21 22 23 23 24 25 26 27 30 34 34 34 34 34 32 33 33 32 31 33 33 32 33 34 33 32 31 30 28 26 26 25 24 23 22 21 21
11 11 12 13 15 17 18 19 21 22 22 23 23 24 25 24 26 33 33 33 34 33 32 33 32 32 33 34 34 34 33 32 32 31 31 30 28 27 24 24 24 24 23 22 22
11 12 12 13 15 17 18 19 21 22 22 22 23 23 22 23 31 32 32 32 33 32 33 33 33 34 33 33 33 34 33 32 31 31 29 27 26 26 24 24 24 23 22 22 22
11 11 12 13 15 17 18 20 21 22 22 22 22 21 20 24 31 32 32 32 32 33 32 35 35 34 33 33 34 32 32 31 30 30 29 28 26 25 25 25 24 24 24 24 23
11 11 11 12 15 17 18 20 22 22 23 23 21 19 19 28 30 31 32 32 33 34 34 36 36 34 32 31 30 30 27 29 32 30 30 28 24 25 26 25 25 25 25 24 24
11 11 12 13 14 17 18 21 23 23 23 22 21 20 21 28 28 31 31 30 33 34 35 36 36 32 32 29 27 26 28 29 32 33 31 28 25 26 26 25 25 26 26 25 24
11 11 12 13 15 16 19 22 23 23 22 20 20 21 23 28 30 32 33 32 31 32 32 34 30 29 28 28 27 30 29 28 29 32 31 28 26 26 26 25 25 26 26 26 25
11 11 12 13 15 16 18 21 18 20 22 22 22 23 27 29 30 31 33 32 32 32 30 31 29 28 30 30 30 32 30 29 29 32 31 29 27 26 26 26 26 25 25 25 25
10 11 12 13 15 17 17 16 17 18 17 22 24 25 26 27 27 28 32 30 30 29 30 30 28 31 32 32 33 32 31 29 29 31 29 28 27 28 27 26 26 26 25 25 26
10 10 11 13 16 16 14 17 17 17 18 21 24 24 25 27 27 28 30 29 30 28 29 28 30 33 33 32 32 32 30 30 30 32 31 29 28 28 28 28 28 27 26 26 26
10 10 10 12 15 12 14 17 18 17 17 21 23 24 27 27 26 31 31 30 30 29 30 29 32 33 33 32 32 30 33 33 32 30 28 31 26 27 29 28 28 27 27 26 26
10 10 10 10 9 10 15 15 17 19 20 27 26 29 26 27 29 31 32 30 30 30 29 29 31 32 33 34 34 34 34 33 33 31 32 31 28 28 28 28 29 28 28 28 27
10 10 10 11 9 14 13 15 17 18 19 26 29 26 25 27 29 32 31 31 31 30 31 31 33 33 34 35 35 35 35 34 32 29 28 31 29 27 30 30 30 29 29 29 28
9 11 10 10 9 14 13 13 16 16 23 27 29 27 25 25 28 29 30 29 28 28 28 31 31 34 34 33 34 35 34 30 29 28 29 28 30 28 32 33 32 30 30 30 29
9 11 12 12 13 12 12 12 15 19 22 25 26 26 27 27 27 29 28 29 28 29 26 28 29 32 34 33 32 32 35 28 30 29 30 30 31 33 34 34 33 32 31 31 29
10 11 10 14 14 12 9 10 14 17 22 19 24 25 27 29 28 28 28 28 30 27 29 26 28 33 34 35 33 34 32 31 29 29 30 30 33 34 34 34 34 32 32 31 30
9 8 9 15 14 12 9 11 13 17 18 19 20 21 21 21 23 28 26 29 30 30 29 29 29 31 34 34 33 32 33 33 26 31 32 30 33 32 31 33 33 32 32 31 30
9 6 13 15 13 9 9 10 14 17 17 18 17 18 19 21 22 23 27 31 31 31 30 28 27 30 32 32 33 32 32 29 27 27 28 29 30 29 33 34 33 33 33 32 31
7 6 14 13 10 8 10 13 15 16 17 17 18 18 19 20 20 22 24 29 31 32 30 29 25 27 29 33 34 31 31 29 27 30 27 27 29 34 34 33 34 34 34 32 32
4 5 13 13 8 8 10 12 13 15 16 17 18 19 19 18 18 21 25 28 25 32 31 30 27 26 29 30 32 32 31 29 26 25 28 29 30 33 32 33 35 34 34 33 33
4 6 6 6 7 10 9 10 12 15 15 17 18 18 18 18 19 19 22 25 26 30 30 31 25 30 28 31 31 33 33 32 29 27 27 28 31 33 35 32 31 34 34 33 33
4 7 8 6 7 7 8 11 11 12 15 16 16 18 18 17 18 20 22 24 27 28 30 31 30 27 31 32 32 33 33 32 30 30 30 32 31 32 33 31 32 32 34 33 33
6 7 8 7 7 8 10 9 12 14 13 13 15 17 19 18 19 20 21 22 23 25 30 27 28 28 30 30 31 33 33 34 33 30 31 30 32 31 33 32 31 31 32 32 32
8 9 6 7 8 8 9 9 11 11 13 16 16 15 16 19 21 22 22 22 24 23 24 27 32 27 30 31 32 30 31 33 34 34 33 32 31 34 36 34 33 31 31 32 32

GFSSW_925_temp_186.txt.gz
Temp
13 13 14 15 16 17 18 19 20 21 22 23 24 24 25 26 28 27 26 32 32 32 30 28 25 26 26 26 27 28 26 26 27 27 27 25 25 26 25 23 24 23 22 21 19
12 14 14 15 16 16 17 19 20 20 22 22 24 24 25 26 27 25 31 31 31 32 30 27 27 25 25 26 27 26 25 28 29 28 27 26 26 25 24 23 21 21 20 19 19
12 12 14 15 16 16 17 18 19 20 22 22 23 24 25 26 25 31 32 32 31 31 31 31 31 27 27 27 28 27 27 29 29 28 28 26 26 26 24 23 22 21 20 20 19
12 12 13 14 15 17 18 19 19 20 21 22 22 23 25 26 30 31 30 31 32 31 30 31 30 30 30 30 29 30 30 29 28 27 27 26 25 24 24 23 23 22 21 20 21
11 11 13 13 15 16 17 19 20 21 21 22 22 22 25 24 25 31 30 30 31 31 31 31 31 31 30 30 31 29 29 28 27 27 26 26 24 24 22 21 22 22 21 21 21
11 11 11 13 14 16 18 19 20 21 22 22 22 21 22 23 30 30 30 30 31 30 30 31 31 31 31 30 29 28 28 27 27 27 26 24 24 24 22 21 21 21 21 21 21
10 11 12 12 13 15 18 20 20 21 22 22 22 21 19 23 29 29 29 28 30 30 29 31 32 32 31 30 29 27 26 26 27 26 25 25 24 22 22 22 21 21 20 20 20
10 11 12 13 14 16 19 19 20 22 23 23 21 19 19 28 27 27 29 28 30 30 30 31 31 31 31 29 28 27 26 25 27 27 26 27 25 22 22 22 21 21 21 21 20
11 11 11 12 14 16 18 19 20 20 21 21 19 19 21 26 25 29 28 27 30 30 31 31 31 29 29 27 27 25 26 27 27 27 27 26 24 23 22 22 21 22 22 22 21
11 11 11 12 14 17 18 20 19 19 18 18 19 20 23 26 27 28 28 27 28 29 31 30 25 26 24 26 26 27 28 27 28 27 27 25 25 23 22 22 22 22 22 22 22
10 11 12 13 14 16 18 18 12 17 15 19 19 20 21 24 26 27 28 26 28 29 27 28 27 27 28 27 29 28 28 29 29 28 27 24 25 23 23 22 22 22 22 22 23
10 11 11 13 14 15 16 11 12 11 10 14 15 17 20 22 23 25 27 27 27 27 27 26 26 28 29 28 30 29 29 29 29 29 28 25 25 24 23 23 23 23 22 23 22
10 10 11 12 14 14 12 12 12 11 10 15 17 19 21 22 22 23 26 26 27 25 26 26 28 29 30 29 29 28 28 28 30 29 27 26 25 23 24 23 24 24 24 23 23
10 10 10 12 13 11 13 13 13 11 13 18 19 20 21 22 23 25 27 28 27 26 25 28 29 29 29 29 29 29 29 30 29 27 27 28 26 23 23 23 23 23 24 24 23
10 11 10 11 9 9 14 13 13 12 18 23 22 24 22 24 26 24 27 27 26 26 26 27 27 28 29 30 30 30 29 29 29 28 27 27 26 26 24 23 23 24 24 24 24
10 11 10 10 9 13 12 13 13 15 16 21 24 23 23 23 25 26 26 28 26 28 27 27 28 28 29 31 31 30 30 27 24 24 25 26 27 27 23 26 25 25 25 25 25
10 11 12 10 10 11 12 11 14 14 18 20 19 18 19 22 24 26 24 25 24 24 25 27 28 30 31 31 31 29 27 25 26 25 26 25 26 30 27 26 27 26 26 26 25
11 12 12 12 11 10 10 12 14 16 16 17 17 17 21 21 23 25 24 25 24 24 23 24 26 28 30 30 28 28 27 25 27 25 27 24 26 29 30 28 28 28 27 26 26
11 12 13 11 11 11 8 11 13 15 15 15 17 16 17 18 18 22 23 26 27 24 25 22 26 28 29 30 32 28 27 27 24 25 26 26 27 29 30 27 27 26 26 26 26
9 8 11 11 11 11 8 10 11 14 15 15 14 15 15 16 17 17 22 25 25 25 25 24 26 28 30 32 31 29 28 28 23 28 28 26 28 28 31 27 28 26 26 26 26
8 6 11 11 11 7 8 7 11 14 14 14 13 14 15 16 16 17 20 23 21 25 25 23 24 27 27 28 27 28 27 23 24 24 25 26 27 27 30 27 28 28 27 26 26
5 6 11 11 7 3 7 10 12 12 14 14 14 14 15 15 15 16 17 19 21 21 27 24 21 25 27 29 29 30 27 26 25 26 23 24 27 30 28 28 27 28 27 26 26
2 2 11 10 7 6 7 9 11 12 13 13 14 15 15 15 14 15 17 20 20 19 20 23 22 23 28 27 27 30 27 25 23 23 24 26 28 29 27 27 28 28 27 27 26
3 5 5 4 4 7 7 8 9 12 12 13 13 14 14 14 14 15 16 19 19 19 22 21 20 25 25 27 26 28 27 27 27 24 25 25 29 31 30 29 27 28 27 26 26
3 5 6 5 6 5 6 7 9 10 11 11 12 13 14 13 13 14 17 17 19 21 19 19 21 23 26 28 29 29 28 26 29 27 30 31 27 29 28 28 28 28 27 26 26
4 5 4 4 4 5 7 7 9 11 11 11 11 12 11 12 14 13 14 15 15 16 16 15 21 23 26 28 28 28 29 28 29 27 29 29 27 28 29 29 29 28 27 27 27
5 5 4 6 5 6 7 9 9 10 10 11 11 11 10 12 13 12 12 12 13 14 14 15 17 18 26 25 26 26 29 27 28 27 29 29 31 30 30 28 28 27 26 28 28